Location: Red Bud (historical)
(37.7759°N, 88.4053°W)
Time: 13:38:18
(UTC+00:00)

BlueWalker 3 - Visible Passes

Search period start: 01 December 2022 00:00
Search period end: 11 December 2022 00:00
Orbit: 500 x 519 km, 53.2° (Epoch: 01 December)

Date Brightness Start Highest point End Pass type
(mag) Time Alt. Az. Time Alt. Az. Time Alt. Az.
06 Dec 4.7 00:43:08 10° NNW 00:43:19 11° NNW 00:43:19 11° NNW visible
07 Dec 4.1 00:24:41 10° NNW 00:25:51 15° N 00:25:51 15° N visible
08 Dec 3.6 00:06:14 10° NNW 00:08:29 20° N 00:08:29 20° N visible
08 Dec 3.3 23:47:46 10° NNW 23:50:53 22° NNE 23:51:15 22° NE visible
09 Dec 5.1 01:25:58 10° NW 01:26:06 11° NW 01:26:06 11° NW visible
09 Dec 3.2 23:29:18 10° NNW 23:32:29 23° NNE 23:34:12 17° ENE visible
10 Dec 4.3 01:07:33 10° WNW 01:09:05 22° WNW 01:09:05 22° WNW visible
10 Dec 3.2 23:10:50 10° NNW 23:14:05 24° NNE 23:17:19 10° E visible
